Date_and_time,latitude,longitude,wind_speed,RelWindDirFrom,WindDirFrom,air_pressure,air_temperature,relative_humidity,Temp,platform_speed_wrt_ground,air_pressure_at_mean_sea_level,platform_orientation
2018-10-17 00:00,50.6304266666667,-96.98074,8.8,14.4,277,991.60,2.9,61,3.41,0.0,1019.27,90.0
2018-10-17 00:00,50.6304266666667,-96.98074,5.6,5.9,280,991.65,2.8,62,3.41,0.0,1019.32,90.0
2018-10-17 00:10,50.6304283333333,-96.98074,9.0,13.7,277,991.58,2.8,62,3.41,0.0,1019.25,90.0
2018-10-17 00:20,50.6304466666667,-96.9807483333333,9.4,16.5,273,991.60,2.8,63,3.40,0.0,1019.27,90.0
2018-10-17 00:30,50.6304366666667,-96.9807483333333,9.5,14.9,274,991.63,2.7,64,3.38,0.0,1019.30,90.0
2018-10-17 00:40,50.6304333333333,-96.9807466666667,8.9,13.7,276,991.73,2.6,66,3.38,0.0,1019.41,90.0
2018-10-17 00:50,50.6304316666667,-96.9807483333333,10.8,16.3,277,991.70,2.5,67,3.37,0.0,1019.38,90.0
2018-10-17 01:00,50.63043,-96.98075,13.0,19.0,287,991.64,2.6,69,3.36,0.0,1019.32,270.0
2018-10-17 01:10,50.6304266666667,-96.9807516666667,10.8,17.8,288,991.87,2.3,76,3.37,0.0,1019.58,270.0
2018-10-17 01:20,50.630425,-96.9807533333333,8.4,13.8,276,992.00,2.0,80,3.36,0.0,1019.72,270.0
2018-10-17 01:30,50.6303916666667,-96.980745,8.0,12.6,273,991.99,1.8,83,3.36,0.0,1019.73,270.0
2018-10-17 01:40,50.6304133333333,-96.980755,8.5,12.7,270,992.08,1.6,85,3.36,0.0,1019.83,270.0
2018-10-17 01:50,50.630415,-96.9807533333333,8.1,13.7,264,992.07,1.6,86,3.36,0.0,1019.82,270.0
2018-10-17 02:00,50.63042,-96.9807533333333,7.8,13.1,275,992.07,1.6,85,3.35,0.0,1019.83,228.3
2018-10-17 02:10,50.6304216666667,-96.980755,8.6,14.8,289,992.10,1.7,85,3.34,0.0,1019.85,228.3
2018-10-17 02:20,50.63044,-96.980755,10.1,19.1,298,992.18,1.8,84,3.34,0.0,1019.93,228.3
2018-10-17 02:30,50.630435,-96.980755,12.2,20.1,312,992.20,1.8,84,3.35,0.0,1019.96,228.3
2018-10-17 02:40,50.6304366666667,-96.980755,13.7,20.4,318,992.28,1.6,83,3.39,0.0,1020.06,228.3
2018-10-17 02:50,50.630435,-96.9807533333333,13.9,19.9,321,992.49,1.4,84,3.38,0.0,1020.28,228.3
2018-10-17 03:00,50.6304333333333,-96.9807516666667,11.0,17.6,325,992.81,1.2,85,3.34,0.0,1020.63,347.4
2018-10-17 03:10,50.6304316666667,-96.9807533333333,11.1,16.7,334,993.05,1.0,86,3.32,0.0,1020.90,347.4
2018-10-17 03:20,50.6304333333333,-96.9807533333333,16.1,24.6,346,993.09,0.5,93,3.32,0.0,1020.98,347.4
2018-10-17 03:30,50.630415,-96.9807216666667,13.4,19.8,333,993.24,-0.2,95,3.34,0.0,1021.18,347.4
2018-10-17 03:40,50.63043,-96.9807483333333,10.6,15.7,324,993.48,-0.1,91,3.30,0.0,1021.42,347.4
2018-10-17 03:50,50.6304283333333,-96.98075,9.0,15.7,326,993.69,0.0,89,3.29,0.0,1021.63,347.4
2018-10-17 04:00,50.630425,-96.9807483333333,8.0,13.4,325,993.87,-0.1,89,3.29,0.0,1021.82,90.0
2018-10-17 04:10,50.630425,-96.980745,8.1,11.7,322,994.04,-0.3,89,3.29,0.0,1022.00,90.0
2018-10-17 04:20,50.6304233333333,-96.980735,7.8,12.5,319,994.21,-0.5,84,3.28,0.0,1022.18,90.0
2018-10-17 04:30,50.6304316666667,-96.9807516666667,7.1,11.2,313,994.38,-0.6,84,3.26,0.0,1022.37,90.0
2018-10-17 04:40,50.630425,-96.98075,8.1,11.3,316,994.40,-0.7,81,3.25,0.0,1022.41,90.0
2018-10-17 04:50,50.6304266666667,-96.9807516666667,6.6,11.0,306,994.52,-0.8,79,3.24,0.0,1022.55,90.0
2018-10-17 05:00,50.6304233333333,-96.9807533333333,6.6,9.7,303,994.56,-1.0,81,3.23,0.0,1022.61,360.0
2018-10-17 05:10,50.63041,-96.9807433333333,6.7,10.5,302,994.68,-1.1,79,3.23,0.0,1022.76,360.0
2018-10-17 05:20,50.6304266666667,-96.9807533333333,6.5,9.6,304,994.78,-1.2,77,3.23,0.0,1022.91,360.0
2018-10-17 05:30,50.6304266666667,-96.980755,6.5,9.6,297,994.89,-1.3,77,3.23,0.0,1023.02,360.0
2018-10-17 05:40,50.6304283333333,-96.9807533333333,5.2,8.6,288,995.05,-1.5,79,3.21,0.0,1023.19,360.0
2018-10-17 05:50,50.6304216666667,-96.9807683333333,5.5,8.6,290,995.13,-1.8,82,3.21,0.0,1023.30,360.0
2018-10-17 06:00,50.630425,-96.9807566666667,6.4,10.4,295,995.24,-1.9,81,3.20,0.0,1023.43,228.3
2018-10-17 06:10,50.6304166666667,-96.9807483333333,6.2,10.4,296,995.44,-1.9,80,3.20,0.0,1023.64,228.3
2018-10-17 06:20,50.6304333333333,-96.980755,7.2,10.6,299,995.50,-2.0,79,3.19,0.0,1023.72,228.3
2018-10-17 06:30,50.6304283333333,-96.98076,7.5,10.6,308,995.53,-2.0,78,3.19,0.0,1023.75,228.3
2018-10-17 06:40,50.6304266666667,-96.9807616666667,6.5,9.2,306,995.64,-2.1,78,3.18,0.0,1023.87,228.3
2018-10-17 06:50,50.6304233333333,-96.980725,5.8,8.4,302,995.83,-2.2,79,3.16,0.0,1024.09,228.3
2018-10-17 07:00,50.63042,-96.98075,5.4,7.8,307,996.04,-2.4,79,3.15,0.0,1024.31,360.0
2018-10-17 07:10,50.6304233333333,-96.980755,4.4,6.0,296,996.33,-2.5,80,3.15,0.0,1024.62,360.0
2018-10-17 07:20,50.6304216666667,-96.9807516666667,4.9,7.1,302,996.65,-2.6,80,3.15,0.0,1024.96,360.0
2018-10-17 07:30,50.6304216666667,-96.9807566666667,4.5,7.1,291,996.89,-2.8,81,3.16,0.0,1025.24,360.0
2018-10-17 07:40,50.6304233333333,-96.9807566666667,5.1,8.2,300,997.05,-2.9,81,3.16,0.0,1025.42,360.0
2018-10-17 07:50,50.6304233333333,-96.9807583333333,6.1,9.9,320,997.16,-2.7,81,3.15,0.0,1025.52,360.0
2018-10-17 08:00,50.6304316666667,-96.98078,7.2,9.8,323,997.33,-2.6,79,3.16,0.0,1025.70,283.7
2018-10-17 08:10,50.63043,-96.98074,7.4,10.9,329,997.44,-2.6,78,3.17,0.0,1025.81,283.7
2018-10-17 08:20,50.6304266666667,-96.980745,8.1,11.6,336,997.58,-2.7,76,3.16,0.0,1025.97,283.7
2018-10-17 08:30,50.6304233333333,-96.9807433333333,8.7,13.3,341,997.78,-2.8,73,3.14,0.0,1026.18,283.7
2018-10-17 08:40,50.63042,-96.9807416666667,7.2,10.1,338,997.98,-3.1,71,3.14,0.0,1026.41,283.7
2018-10-17 08:50,50.6304216666667,-96.9807416666667,8.2,12.3,337,998.05,-3.3,71,3.14,0.0,1026.50,283.7
2018-10-17 09:00,50.6304216666667,-96.9807433333333,8.0,12.0,335,998.14,-3.6,71,3.15,0.0,1026.62,125.3
2018-10-17 09:10,50.63042,-96.9807433333333,6.9,10.5,334,998.26,-3.9,72,3.13,0.0,1026.76,125.3
2018-10-17 09:20,50.6304216666667,-96.9807433333333,6.6,10.1,330,998.45,-4.1,73,3.12,0.0,1026.98,125.3
2018-10-17 09:30,50.6304233333333,-96.9807433333333,6.6,9.8,326,998.73,-4.3,72,3.12,0.0,1027.27,125.3
2018-10-17 09:40,50.6304233333333,-96.9807433333333,6.5,10.1,330,998.85,-4.4,73,3.13,0.0,1027.39,125.3
2018-10-17 09:50,50.6304233333333,-96.980745,6.7,9.8,328,998.93,-4.6,72,3.14,0.0,1027.48,125.3
2018-10-17 10:00,50.6304233333333,-96.980745,6.7,8.8,330,999.01,-4.6,72,3.13,0.0,1027.57,12.6
2018-10-17 10:10,50.630425,-96.980745,6.5,9.0,325,999.08,-4.8,72,3.12,0.0,1027.65,12.6
2018-10-17 10:20,50.630425,-96.980745,6.2,9.1,324,999.07,-5.0,72,3.09,0.0,1027.66,12.6
2018-10-17 10:30,50.630425,-96.980745,6.0,8.4,319,999.10,-5.1,73,3.06,0.0,1027.72,12.6
2018-10-17 10:40,50.6304266666667,-96.980745,5.9,8.6,320,999.12,-5.2,73,3.07,0.0,1027.76,12.6
2018-10-17 10:50,50.6304316666667,-96.9807666666667,6.4,8.7,330,999.15,-5.2,73,3.04,0.0,1027.80,12.6
2018-10-17 11:00,50.630405,-96.9807316666667,7.0,10.4,338,999.20,-5.2,74,3.01,0.0,1027.87,129.7
2018-10-17 11:10,50.6304183333333,-96.9807483333333,6.8,9.4,337,999.25,-5.2,74,3.00,0.0,1027.92,129.7
2018-10-17 11:20,50.6304133333333,-96.9807466666667,6.0,8.0,325,999.43,-5.4,73,3.01,0.0,1028.13,129.7
2018-10-17 11:30,50.630415,-96.9807483333333,5.8,8.0,320,999.69,-5.6,73,3.01,0.0,1028.42,129.7
2018-10-17 11:40,50.6304166666667,-96.9807483333333,5.7,7.7,315,999.75,-5.7,73,2.99,0.0,1028.49,129.7
2018-10-17 11:50,50.630415,-96.9807483333333,4.8,6.9,315,999.77,-5.8,75,2.99,0.0,1028.53,129.7
2018-10-17 12:00,50.6304083333333,-96.980735,5.4,6.9,315,999.80,-6.0,75,2.98,0.0,1028.58,165.5
2018-10-17 12:10,50.6304183333333,-96.9807516666667,4.9,7.1,311,999.88,-6.1,75,2.96,0.0,1028.67,165.5
2018-10-17 12:20,50.63042,-96.98075,4.4,6.1,296,1000.02,-6.2,76,2.93,0.0,1028.83,165.5
2018-10-17 12:30,50.63042,-96.98075,4.1,5.9,305,1000.15,-6.3,77,2.92,0.0,1028.97,165.5
2018-10-17 12:40,50.6304133333333,-96.9807583333333,4.9,6.1,296,1000.36,-6.6,78,2.90,0.0,1029.21,165.5
2018-10-17 12:50,50.6304116666667,-96.9807333333333,4.2,5.8,292,1000.57,-6.7,79,2.89,0.0,1029.43,165.5
2018-10-17 13:00,50.6304116666667,-96.9807383333333,4.7,6.7,279,1000.59,-6.7,79,2.88,0.0,1029.45,165.5
2018-10-17 13:10,50.6304083333333,-96.98075,4.8,6.0,284,1000.70,-6.8,79,2.88,0.0,1029.58,165.5
2018-10-17 13:20,50.63041,-96.9807483333333,4.6,6.0,269,1001.01,-6.8,79,2.87,0.0,1029.90,165.5
2018-10-17 13:30,50.6304116666667,-96.9807533333333,5.1,6.9,262,1001.22,-7.0,78,2.85,0.0,1030.14,165.5
2018-10-17 13:40,50.6304116666667,-96.9807566666667,5.0,6.4,262,1001.20,-6.9,78,2.89,0.0,1030.13,165.5
2018-10-17 13:50,50.6304216666667,-96.98076,4.4,5.9,265,1001.33,-6.5,77,2.89,0.0,1030.25,165.5
2018-10-17 14:00,50.6304233333333,-96.9807616666667,4.3,5.4,259,1001.32,-6.3,75,2.89,0.0,1030.22,332.3
2018-10-17 14:10,50.630425,-96.98076,3.1,4.5,267,1001.40,-5.9,75,2.93,0.0,1030.29,332.3
2018-10-17 14:20,50.6304233333333,-96.9807616666667,3.7,5.1,272,1001.45,-5.2,73,2.95,0.0,1030.31,332.3
2018-10-17 14:30,50.6303966666667,-96.9807333333333,3.3,4.7,271,1001.45,-4.9,71,2.89,0.0,1030.31,332.3
2018-10-17 14:40,50.63042,-96.9807533333333,3.6,4.4,256,1001.58,-4.6,69,2.80,0.0,1030.44,332.3
2018-10-17 14:50,50.6304216666667,-96.9807566666667,2.9,4.5,273,1001.75,-4.2,67,2.76,0.0,1030.58,332.3
2018-10-17 15:00,50.6304083333333,-96.9807583333333,1.5,2.5,245,1001.83,-3.7,65,2.73,0.0,1030.65,270.0
2018-10-17 15:10,50.6304166666667,-96.9807533333333,1.4,2.4,290,1001.82,-3.2,63,2.72,0.0,1030.61,270.0
2018-10-17 15:20,50.6304366666667,-96.9808066666667,2.0,3.4,260,1001.87,-3.1,63,2.73,0.0,1030.67,270.0
2018-10-17 15:30,50.6304316666667,-96.980775,1.8,3.2,201,1001.96,-3.0,64,2.73,0.0,1030.75,270.0
2018-10-17 15:40,50.6304216666667,-96.9807616666667,1.9,3.8,160,1001.75,-2.6,64,2.74,0.0,1030.49,270.0
2018-10-17 15:50,50.6304183333333,-96.98076,1.8,3.6,151,1001.75,-2.3,64,2.76,0.0,1030.46,270.0
2018-10-17 16:00,50.6304166666667,-96.98076,4.4,6.7,181,1001.70,-2.5,66,2.74,0.0,1030.40,270.0
2018-10-17 16:10,50.6304116666667,-96.9807933333333,4.2,5.8,164,1001.91,-2.6,68,2.76,0.0,1030.58,270.0
2018-10-17 16:20,50.630415,-96.9807716666667,3.8,6.0,166,1001.93,-2.4,67,2.77,0.0,1030.58,270.0
2018-10-17 16:30,50.6304166666667,-96.980765,4.3,7.8,165,1001.74,-2.1,66,2.78,0.0,1030.35,270.0
2018-10-17 16:40,50.6304216666667,-96.9807533333333,5.6,8.8,156,1001.57,-2.0,67,2.79,0.0,1030.14,270.0
2018-10-17 16:50,50.6304283333333,-96.9807383333333,6.9,8.8,152,1001.67,-2.0,66,2.79,0.0,1030.23,270.0
2018-10-17 17:00,50.63044,-96.98076,7.1,9.4,151,1001.78,-1.8,66,2.81,0.0,1030.30,18.9
2018-10-17 17:10,50.630405,-96.98083,7.1,11.0,160,1001.70,-1.6,67,2.82,0.0,1030.20,18.9
2018-10-17 17:20,50.6304183333333,-96.9807683333333,5.5,9.1,164,1001.90,-1.3,64,2.83,0.0,1030.38,18.9
2018-10-17 17:30,50.6304216666667,-96.9807683333333,5.9,9.9,170,1001.80,-0.9,63,2.84,0.0,1030.24,18.9
2018-10-17 17:40,50.630425,-96.9807616666667,8.2,12.4,138,1001.58,-0.5,65,2.85,0.0,1029.98,18.9
2018-10-17 17:50,50.630425,-96.98076,9.7,12.1,143,1001.46,-0.8,65,2.86,0.0,1029.89,18.9
2018-10-17 18:00,50.6304266666667,-96.9807583333333,9.8,12.0,143,1001.21,-0.7,65,2.87,0.0,1029.62,18.9
2018-10-17 18:10,50.630435,-96.9807716666667,8.7,11.0,141,1001.26,-0.5,64,2.89,0.0,1029.65,18.9
2018-10-17 18:20,50.6304316666667,-96.980755,8.8,11.5,144,1001.34,-0.5,63,2.94,0.0,1029.71,18.9
2018-10-17 18:30,50.6304333333333,-96.9807566666667,9.5,12.4,146,1001.25,-0.4,61,2.98,0.0,1029.61,18.9
2018-10-17 18:40,50.63043,-96.980755,10.1,13.0,141,1000.86,-0.0,63,3.00,0.0,1029.20,18.9
2018-10-17 18:50,50.6304216666667,-96.98074,10.0,12.8,147,1000.76,-0.1,63,3.02,0.0,1029.09,18.9
2018-10-17 19:00,50.6304183333333,-96.9807533333333,11.2,14.3,146,1000.75,0.0,63,3.05,0.0,1029.06,90.0
2018-10-17 19:10,50.6304266666667,-96.9807633333333,9.9,12.6,140,1000.71,0.0,64,3.08,0.0,1029.00,90.0
2018-10-17 19:20,50.6304183333333,-96.9807366666667,11.3,14.4,150,1000.43,-0.0,64,3.10,0.0,1028.70,90.0
2018-10-17 19:30,50.6304266666667,-96.9807433333333,9.9,13.9,145,1000.51,0.2,63,3.12,0.0,1028.74,90.0
2018-10-17 19:40,50.6304083333333,-96.9807416666667,11.0,14.6,148,1000.20,0.1,63,3.13,0.0,1028.45,90.0
2018-10-17 19:50,50.630415,-96.9807316666667,11.2,15.0,145,999.85,0.4,63,3.15,0.0,1028.06,90.0
2018-10-17 20:00,50.63042,-96.9807433333333,10.6,13.9,153,999.75,0.6,61,3.15,0.0,1027.94,165.5
2018-10-17 20:10,50.6304183333333,-96.9807433333333,10.4,13.7,177,999.56,1.0,58,3.15,0.0,1027.73,165.5
2018-10-17 20:20,50.6304183333333,-96.9807466666667,11.4,16.6,193,999.34,1.7,54,3.15,0.0,1027.45,165.5
2018-10-17 20:30,50.63042,-96.9807466666667,12.8,19.3,183,999.10,2.0,55,3.16,0.0,1027.18,165.5
2018-10-17 20:40,50.63042,-96.9807466666667,12.3,16.9,193,999.08,2.2,54,3.17,0.0,1027.15,165.5
2018-10-17 20:50,50.6304216666667,-96.9807466666667,11.7,16.3,194,998.97,2.5,54,3.19,0.0,1027.02,165.5
2018-10-17 21:00,50.6304333333333,-96.9807633333333,13.5,18.8,190,998.71,2.6,54,3.19,0.0,1026.74,347.4
2018-10-17 21:10,50.6304183333333,-96.9807516666667,14.6,18.8,188,998.34,2.7,55,3.21,0.0,1026.37,347.4
2018-10-17 21:20,50.6304183333333,-96.9807516666667,13.3,17.4,190,998.12,2.9,56,3.23,0.0,1026.11,347.4
2018-10-17 21:30,50.6304216666667,-96.9807533333333,14.1,18.0,186,998.01,3.0,56,3.26,0.0,1026.00,347.4
2018-10-17 21:40,50.6304266666667,-96.9807516666667,13.0,17.5,188,997.94,3.3,56,3.29,0.0,1025.89,347.4
2018-10-17 21:50,50.6304283333333,-96.9807533333333,12.6,17.1,184,997.81,3.5,56,3.29,0.0,1025.74,347.4
2018-10-17 22:00,50.6304283333333,-96.9807533333333,14.2,19.0,190,997.64,3.5,56,3.30,0.0,1025.54,360.0
2018-10-17 22:10,50.6304233333333,-96.980745,15.9,22.3,189,997.09,3.5,56,3.30,0.0,1024.94,360.0
2018-10-17 22:20,50.630425,-96.9807433333333,13.3,18.1,189,997.27,3.6,57,3.30,0.0,1025.11,360.0
2018-10-17 22:30,50.6304233333333,-96.9807433333333,13.2,17.7,186,997.26,3.6,57,3.30,0.0,1025.09,360.0
2018-10-17 22:40,50.6304266666667,-96.9807466666667,12.1,15.3,180,997.05,3.6,58,3.30,0.0,1024.86,360.0
2018-10-17 22:50,50.6304283333333,-96.9807466666667,14.0,18.1,176,996.64,3.3,59,3.30,0.0,1024.44,360.0
2018-10-17 23:00,50.6304283333333,-96.9807466666667,13.8,16.4,178,996.41,3.1,60,3.30,0.0,1024.22,38.0
2018-10-17 23:10,50.6304283333333,-96.980745,13.7,16.6,179,996.25,3.2,60,3.29,0.0,1024.04,38.0
2018-10-17 23:20,50.6304433333333,-96.980745,12.3,15.0,177,996.06,3.1,62,3.29,0.0,1023.84,38.0
2018-10-17 23:30,50.63044,-96.9807416666667,12.8,15.9,177,995.95,2.9,62,3.29,0.0,1023.72,38.0
2018-10-17 23:40,50.63043,-96.9807466666667,12.7,15.1,172,995.73,2.7,64,3.29,0.0,1023.50,38.0
